Billings, MT

2:23 AM MDT on May 22, 2018 (GMT -0600)
Billings Logan International

Weather History for KBIL - December, 2013

Change the Weather History Date:

Thursday, December 26, 2013

  Actual Average Record
Temperature  
Mean Temperature 36 °F 26 °F  
Max Temperature 42 °F 35 °F 62 °F (1980)
Min Temperature 30 °F 17 °F -20 °F (1996)
Degree Days  
Heating Degree Days 29 39  
Month to date heating degree days 1172 994  
Since 1 July heating degree days 2773 2622  
Cooling Degree Days 0 0  
Month to date cooling degree days 0 0  
Year to date cooling degree days 840 636  
Moisture  
Dew Point 21 °F    
Average Humidity 53    
Maximum Humidity 58    
Minimum Humidity 47    
Precipitation  
Precipitation 0.00 in 0.01 in 0.43 in (2003)
Month to date precipitation 1.89 0.42  
Year to date precipitation 16.61 13.58  
Snow  
Snow 0.00 in 0.20 in 5.50 in (2003)
Month to date snowfall 23.2 6.7  
Since 1 July snowfall 34.3 18.4  
Snow Depth 2.00 in    
Sea Level Pressure  
Sea Level Pressure 30.17 in    
Wind  
Wind Speed 20 mph (SW)    
Max Wind Speed 32 mph    
Max Gust Speed 38 mph    
Visibility 10 miles    
Events      
T = Trace of Precipitation, MM = Missing Value Source: NWS Daily Summary

Daily Weather History Graph

Daily Weather History Graph

Search for Another Location

Airport or City:

Astronomy

Dec. 26, 2013 Rise Set
Actual Time 7:54 AM MST 4:35 PM MST
Civil Twilight 7:20 AM MST 5:09 PM MST
Nautical Twilight 6:42 AM MST 5:47 PM MST
Astronomical Twilight 6:05 AM MST 6:24 PM MST
Moon 1:12 AM MST (12/26) 12:25 PM MST (12/26)
Length of Visible Light 9h 49m
Length of Day
8h 40m
Last Quarter, 38% of the Moon is Illuminated
Dec 26
Last Quarter
Jan 1
New
Jan 7
First Quarter
Jan 15
Full
Jan 23
Last Quarter

Hourly Weather History & Observations

Time (MST) Temp. Windchill Dew Point Humidity Pressure Visibility Wind Dir Wind Speed Gust Speed Precip Events Conditions
12:53 AM 37.0 °F 27.0 °F 19.0 °F 48% 30.18 in 10.0 mi WSW 18.4 mph - N/A   Mostly Cloudy
1:53 AM 35.1 °F 25.2 °F 19.9 °F 54% 30.20 in 10.0 mi SW 16.1 mph - N/A   Partly Cloudy
2:53 AM 33.1 °F 22.6 °F 19.0 °F 56% 30.22 in 10.0 mi WSW 16.1 mph - N/A   Partly Cloudy
3:53 AM 30.9 °F 19.8 °F 18.0 °F 59% 30.23 in 10.0 mi SW 16.1 mph - N/A   Mostly Cloudy
4:53 AM 33.1 °F 21.5 °F 17.1 °F 52% 30.23 in 10.0 mi WSW 19.6 mph - N/A   Mostly Cloudy
5:53 AM 32.0 °F 21.2 °F 17.1 °F 54% 30.23 in 10.0 mi WSW 16.1 mph - N/A   Mostly Cloudy
6:53 AM 30.0 °F 19.5 °F 18.0 °F 61% 30.24 in 10.0 mi SW 13.8 mph - N/A   Mostly Cloudy
7:53 AM 32.0 °F 20.5 °F 18.0 °F 56% 30.22 in 10.0 mi SW 18.4 mph - N/A   Scattered Clouds
8:53 AM 33.1 °F 21.2 °F 19.0 °F 56% 30.21 in 10.0 mi WSW 20.7 mph - N/A   Mostly Cloudy
9:53 AM 34.0 °F 22.1 °F 19.0 °F 54% 30.23 in 10.0 mi SW 21.9 mph - N/A   Mostly Cloudy
10:53 AM 37.0 °F 26.7 °F 21.0 °F 52% 30.22 in 10.0 mi SW 19.6 mph - N/A   Scattered Clouds
11:53 AM 39.0 °F 28.5 °F 21.9 °F 50% 30.18 in 10.0 mi WSW 23.0 mph - N/A   Partly Cloudy
12:53 PM 39.9 °F 30.8 °F 23.0 °F 51% 30.16 in 10.0 mi SW 18.4 mph - N/A   Partly Cloudy
1:53 PM 41.0 °F 31.9 °F 25.0 °F 53% 30.14 in 10.0 mi WSW 19.6 mph - N/A   Partly Cloudy
2:53 PM 41.0 °F 32.2 °F 24.1 °F 51% 30.14 in 10.0 mi WSW 18.4 mph - N/A   Partly Cloudy
3:53 PM 39.9 °F 30.5 °F 23.0 °F 51% 30.14 in 10.0 mi SW 19.6 mph - N/A   Partly Cloudy
4:53 PM 39.0 °F 29.0 °F 23.0 °F 53% 30.12 in 10.0 mi SW 20.7 mph - N/A   Partly Cloudy
5:53 PM 39.0 °F 28.3 °F 21.9 °F 50% 30.10 in 10.0 mi WSW 24.2 mph - N/A   Scattered Clouds
6:53 PM 39.0 °F 28.5 °F 21.9 °F 50% 30.12 in 10.0 mi WSW 23.0 mph - N/A   Mostly Cloudy
7:53 PM 39.9 °F 29.7 °F 24.1 °F 53% 30.10 in 10.0 mi WSW 23.0 mph - N/A   Mostly Cloudy
8:53 PM 39.9 °F 30.2 °F 24.1 °F 53% 30.10 in 10.0 mi WSW 20.7 mph - N/A   Scattered Clouds
9:53 PM 39.0 °F 29.3 °F 24.1 °F 55% 30.09 in 10.0 mi WSW 19.6 mph - N/A   Mostly Cloudy
10:53 PM 39.0 °F 28.5 °F 24.1 °F 55% 30.08 in 10.0 mi WSW 23.0 mph - N/A   Overcast
11:53 PM 39.9 °F 29.7 °F 25.0 °F 55% 30.09 in 10.0 mi WSW 23.0 mph - N/A   Mostly Cloudy